Карточка аэропорта USRR

Внимание!
Информация на этой странице в стадии наполнения.
Если вы не увидели какой-то информации, или заметили неточность - пожалуйста сообщите нам!
Спасибо!
Команда RU-STAFF
Название аэропортаСургут
Название аэропорта (англ.)Surgut
Превышение196 ft. (59.7 m.)
Координаты61°20.502', 73°24.168'
Высота перехода700m
Эшелон переходаQFE>=742mm:FL040; QFE<=742mm:FL050
Коды ответчика5570-5577
Зона ОрВДТюмень РПИ (USTV)
Данные METARUSRR 252030Z 14003MPS 100V180 9999 FEW040CB 21/17 Q1000 R07/290055 NOSIG RMK QFE745
Проноз погоды (TAF)USRR 251950Z 2521/2621 15005G10MPS 9999 SCT020CB TEMPO 2521/2603 12010G18MPS 1000 TSRA FEW003 BKN016CB BECMG 2603/2605 19006G13MPS TEMPO 2605/2615 5000 -TSRA FEW005 BKN016CB
NOTAMshow/hide NOTAM
AWOS   TABLE

Информация о ВПП

ВПП Длина ВПП (м.) Покрытие Курс ВПП Частота ILS
072780Асфальтобетон73110.5
252780Асфальтобетон253109.1

Диспетчерские позиции

Позывной Наименование органа УВД Частота
USRR_TWRСургут-Вышка120.800
USRR_APPСургут-Подход129.300
USRR_R_APPСургут - Круг120.300



Спутниковое изображение